Погода в Зилаире

Погода в Зилаире : погода сейчас, прогноз погоды и архив. Всё, что Вы хотите узнать о погоде в Зилаире!

Поиск расширенной информации на нашем сайте:

Другие новости

Новости СМИ2

Главная страница сайта

Новости сайта

03.07.2017

Напоминаем, что на нашем специализированном сайте Метеоцентр.Азия вы можете получить высокодетализированные автоматические прогнозы погоды по пунктам России, СНГ и мира в авиационном формате (включающие направление и скорость ветра, видимость, явления погоды, количество и форму облачности, нижнюю и верхнюю границу облачности).


Погода в Зилаире - сегодня

Время (UTC), дата Ветер
(°,м/с) 
Видим.   Явления Облачность Т
(°С)
Тd
(°С)
f(%) Тe
(°С)
Pmin
(гПа)
dP
(гПа)
Po
(мм)
O2
(г/м3)
Тmin Tmax R s Состояние
почвы
21 21.07.17 160 (Ю) 10 км    10/10 600 м 
[Sc]
+19.3 +11.6 61 +25  1011.7  714  267    -11.1       
00 22.07.17 090 (В) 10 км  {ливн. осадки}  10/10 600 м 
[Cu Sc]
+18.3 +13.3 73 +27  1011.5  -0.4  714  267           
03 22.07.17 190 (Ю) 20000 м    8/8 600 м 
[Cu Sc]
+19.9 +13.6 67 +29  1010.3  -0.8  714  265  +16.9    0.0    сухая 
06 22.07.17 180 (Ю) 20000 м    ясно 
+25.3 +15 53 +35  1009.2  0.1  714  260           
09 22.07.17 220 (ЮЗ) 20000 м    4/0 верхняя 
[Ci sp]
+29 +11.5 34 +33  1008.2  -0.4  713  258           
12 22.07.17 280 (З) 20000 м    6/3 600 м верхняя 
[Cu med, cong|Ci fib]
+30.5 +9.9 28 +33  1006.5  -1.3  712  256           
15 22.07.17 340 (С) 20000 м    4/0 верхняя 
[Cs]
+27.9 +14.1 43 +36  1006.4  -0.5  712  257    +30.9       
18 22.07.17 360 (С) 10 км    ясно 
+21.5 +16.5 73 +34  1009.2  1.5  713  263           
21 22.07.17 020 (С) 10 км    ясно 
+16.9 +14.5 86 +27  1010.2  713  267           
00 23.07.17 020 (С) 10 км    ясно 
+13.5 +12.7 95 +21  1010.8  -0.2  713  271           
03 23.07.17 350 (С) 10 км    ясно 
+17.8 +14.1 79 +27  1010.6  0.7  713  267  +13.3        сухая 
06 23.07.17 040 (СВ) 20000 м    3/3 600 м верхняя 
[Cu hum|Ci fib]
+22.5 +9.9 45 +25  1009.6  -0.1  713  264           
09 23.07.17 030 (СВ) 20000 м    3/0 верхняя 
[Ci fib]
+24.9 +9.2 37 +26  1008.8  -0.3  713  262           
12 23.07.17 300 (СЗ) 20000 м    4/0 верхняя 
[Ci fib]
+26.1 +7.2 30 +26  1008.3  -0.3  713  261           
15 23.07.17 340 (С) 20000 м    3/0 верхняя 
[Ci fib]
+24.1 +8.1 36 +24  1008.4  -0.3  713  262    +26.6       
18 23.07.17 020 (С) 10 км    8/0 верхняя 
[Cs]
+16.9 +11.8 72 +23  1010.3  0.5  713  268           
21 23.07.17 360 (С) 10 км    ясно 
+13.1 +11.7 91 +19  1010.4  -0.7  713  272           
00 24.07.17 тихо ()   10 км    9/0 верхняя 
[Cs]
+12 +10.4 90 +15  1010.1  -0.5  712  273           
03 24.07.17 тихо ()   20000 м    10/0 верхняя 
[Cs]
+15.3 +11.3 77 +19  1009.7  0.3  712  270  +11.7        сухая 
06 24.07.17 210 (ЮЗ) 20000 м    9/9 600 м 
[Cu Sc]
+21.5 +11.8 54 +26  1007.6  -0.7  712  264           
09 24.07.17 330 (СЗ) 20000 м    9/9 600 м 
[Cu Sc]
+23.1 +12.4 51 +29  1006.9  -0.4  712  262           
12 24.07.17 010 (С) 20000 м  в посл. час ливневой дождь  10/10 600 м 
[Sc]
+19.8 +16.3 80 +34  1007  -0.4  711  264           
15 24.07.17 тихо ()   20000 м  {ливн. осадки}  10/10 600 м 
[Sc]
+18.9 +15.7 82 +30  1006.5  -0.7  711  264    +23.7  0.7     
18 24.07.17 110 (В) 10 км  ливневой дождь  10/10 300 м кучево-дожд. 
[Cb cap]
+16.4 +15.4 94 +28  1007.3  0.3  711  267           
21 24.07.17 360 (С) 4000 м  дымка{ливн. осадки}  4/4 600 м 
[Sc]
+15.6 +14.9 96 +27  1006.6  -0.9  710  268           
Время (UTC), дата Ветер
(°,м/с) 
Видим.   Явления Облачность Т
(°С)
Тd
(°С)
f(%) Тe
(°С)
Pmin
(гПа)
dP
(гПа)
Po
(мм)
O2
(г/м3)
Тmin Tmax R s Состояние
почвы

Для получения пояснительной информации подведите курсор к названию столбца.

ПОГОДА в Зилаире - архив

Всё, что Вы хотите узнать о погоде в Зилаире - удобно и подробно!

Выберите нужную дату (начиная с 1 января 2015* года) и нажмите кнопку "Найти".
Будут отображены архивные сводки погоды по пункту Зилаир, начиная с указанной даты.


Отображать данные в формате CSV (для использования в таблицах Excel)


Внимание! Наш архив погоды предназначен исключительно для личного некоммерческого использования в познавательных целях. Если Вам необходимы официальные справки о состоянии погоды (для производственных, юридических, коммерческих и т.п. целей), обращайтесь в органы Росгидромета.

*Примечание: данная дата относится к архиву по метеостанциям СССР (Россия, СНГ, Балтия).
Архив по метеостанциям Зарубежной Европы и Азии (кроме Китая) хранится 10 дней, по другим регионам земного шара (Китай, Африка, Америка, Австралия, Океания) - 1 день.

Зилаир - район местоположения метеостанции


Название, широта, долгота, высота метеостанции:
Зилаир 52.2°ш. 57.4°д. 521 м над ур. моря [Российская Федерация]

Дополнительная информация

В oтличие oт бoльшинства пoгoдных сайтoв мы публикуем пoдрoбную метеoинфoрмацию в детальнoм прoфессиoнальнoм фoрмате.

Характеристики температуры и влажнoсти вoздуха измеряются на высoте 2 м в тени вдали oт зданий и деревьев.
Скoрoсть ветра измеряется на высoте 10 м (на урoвне рoста челoвека скoрoсть ветра ниже в 1.5-2 раза). Если метеoстанция нахoдится в гoрoде или в лесу, тo скoрoсть ветра занижена на 2-4 м/с пo сравнению с oткрытым местoм. Скoрoсть ветра над акватoриями крупных рек и oзёр, а также на вершинах хoлмoв на 2-5 м/с выше, чем в oбычных услoвиях.
Атмoсфернoе давление в разных тoчках местнoсти мoжет значительнo oтличаться oт давления на метеoстанции, в зависимoсти oт услoвий рельефа (при пoдъёме на 10 м давление пoнижается примернo на 1 мм рт.ст.).